Cairns, Australia

5:51 PM AEST on July 25, 2017 (GMT +1000)
Cairns International

Weather History for YBCS - September, 2013

Change the Weather History Date:

Monday, September 2, 2013

  Actual Average Record
Temperature  
Mean Temperature 76 °F -  
Max Temperature 82 °F 82 °F 87 °F (2000)
Min Temperature 69 °F 66 °F 55 °F (2014)
Cooling Degree Days 10    
Growing Degree Days 26 (Base 50)    
Moisture  
Dew Point 62 °F    
Average Humidity 64    
Maximum Humidity 83    
Minimum Humidity 40    
Precipitation  
Precipitation 0.04 in 0.04 in - ()
Sea Level Pressure  
Sea Level Pressure 30.13 in    
Wind  
Wind Speed 15 mph ()    
Max Wind Speed 25 mph    
Max Gust Speed 33 mph    
Visibility 6.9 miles    
Events Rain    
Averages and records for this station are not official NWS values.
T = Trace of Precipitation, MM = Missing Value Source: Averaged Metar Reports

Daily Weather History Graph

Daily Weather History Graph

Search for Another Location

Airport or City:

Trip Planner

Search our weather history database for the weather conditions in past years. The results will help you decide how hot, cold, wet, or windy it might be!

Date:

Astronomy

Sep. 02, 2013 Rise Set
Actual Time 6:23 AM AEST 6:10 PM AEST
Civil Twilight 6:01 AM AEST 6:32 PM AEST
Nautical Twilight 5:36 AM AEST 6:57 PM AEST
Astronomical Twilight 5:11 AM AEST 7:22 PM AEST
Moon 3:44 AM AEST (9/2) 3:27 PM AEST (9/2)
Length of Visible Light 12h 31m
Length of Day
11h 47m
Waning Crescent, 11% of the Moon is Illuminated
Sep 2
Waning Crescent
Sep 5
New
Sep 13
First Quarter
Sep 19
Full
Sep 27
Last Quarter

Hourly Weather History & Observations

Time (AEST) Temp. Heat Index Dew Point Humidity Pressure Visibility Wind Dir Wind Speed Gust Speed Precip Events Conditions
12:00 AM 71 °F - 62 °F 65% 30.16 in - South 11.5 mph - -   Overcast
12:30 AM 71.6 °F - 60.8 °F 69% 30.12 in 6.2 mi South 11.5 mph - N/A   Scattered Clouds
1:00 AM 70 °F - 61 °F 67% 30.14 in - South 15.0 mph - -  
1:00 AM 69.8 °F - 60.8 °F 73% 30.12 in 6.2 mi South 15.0 mph - N/A   Scattered Clouds
1:30 AM 69.8 °F - 60.8 °F 73% 30.12 in 6.2 mi SSE 12.7 mph - N/A   Scattered Clouds
2:00 AM 69.8 °F - 60.8 °F 73% 30.12 in 6.2 mi SSE 15.0 mph - N/A   Scattered Clouds
2:30 AM 71.6 °F - 60.8 °F 69% 30.12 in 6.2 mi SSE 15.0 mph - N/A   Scattered Clouds
3:00 AM 71 °F - 62 °F 64% 30.12 in - SSE 11.5 mph - -  
3:00 AM 71.6 °F - 60.8 °F 69% 30.09 in 6.2 mi SSE 11.5 mph - N/A   Scattered Clouds
3:30 AM 69.8 °F - 62.6 °F 78% 30.09 in 6.2 mi SSE 9.2 mph - N/A   Partly Cloudy
4:00 AM 71 °F - 62 °F 67% 30.12 in - SSE 10.4 mph - -  
4:00 AM 71.6 °F - 62.6 °F 73% 30.09 in 6.2 mi SSE 10.4 mph - N/A   Scattered Clouds
4:30 AM 71.6 °F - 62.6 °F 73% 30.09 in 6.2 mi South 10.4 mph - N/A   Scattered Clouds
5:00 AM 71.6 °F - 62.6 °F 73% 30.09 in 6.2 mi SSE 10.4 mph - N/A   Scattered Clouds
5:30 AM 71.6 °F - 62.6 °F 73% 30.12 in 6.2 mi SSE 10.4 mph - N/A   Mostly Cloudy
6:00 AM 71.6 °F - 62.6 °F 73% 30.12 in 6.2 mi South 10.4 mph - N/A   Scattered Clouds
6:30 AM 71.6 °F - 62.6 °F 73% 30.12 in 6.2 mi SSE 11.5 mph - N/A   Scattered Clouds
7:00 AM 73.4 °F - 60.8 °F 65% 30.15 in 6.2 mi South 12.7 mph - N/A   Partly Cloudy
7:30 AM 75.2 °F - 60.8 °F 61% 30.15 in 6.2 mi SSE 11.5 mph - N/A   Partly Cloudy
8:00 AM 75.2 °F - 62.6 °F 65% 30.18 in 6.2 mi SSE 15.0 mph - N/A   Scattered Clouds
8:30 AM 77.0 °F - 59.0 °F 54% 30.18 in 6.2 mi SE 18.4 mph - N/A   Scattered Clouds
9:00 AM 77 °F - 61 °F 48% 30.19 in 19 mi SE 20.7 mph - -   Partly Cloudy
9:00 AM 77.0 °F - 60.8 °F 57% 30.18 in 6.2 mi SE 20.7 mph - N/A   Scattered Clouds
9:30 AM 78.8 °F - 62.6 °F 57% 30.18 in 6.2 mi SE 20.7 mph - N/A   Scattered Clouds
10:00 AM 79 °F - 61 °F 45% 30.20 in - SE 20.7 mph - -  
10:00 AM 78.8 °F - 60.8 °F 54% 30.18 in 6.2 mi SE 20.7 mph - N/A   Scattered Clouds
10:30 AM 78.8 °F - 62.6 °F 57% 30.18 in 6.2 mi SSE 23.0 mph - N/A   Mostly Cloudy
11:00 AM 78.8 °F - 60.8 °F 54% 30.18 in 6.2 mi SSE 21.9 mph - N/A   Mostly Cloudy
11:30 AM 80.6 °F 81.5 °F 60.8 °F 51% 30.18 in 6.2 mi SE 21.9 mph - N/A   Scattered Clouds
12:00 PM 82 °F - 62 °F 40% 30.17 in 19 mi SE 21.9 mph - -   Partly Cloudy
12:00 PM 82.4 °F 83.4 °F 62.6 °F 51% 30.15 in 6.2 mi SE 21.9 mph - N/A   Scattered Clouds
12:30 PM 80.6 °F 81.5 °F 60.8 °F 51% 30.15 in 6.2 mi SSE 24.2 mph - N/A   Scattered Clouds
1:00 PM 82.4 °F 82.9 °F 60.8 °F 48% 30.12 in 6.2 mi SE 21.9 mph - N/A   Partly Cloudy
1:20 PM 82.4 °F 82.0 °F 57.2 °F 42% 30.12 in 6.2 mi SE 18.4 mph 29.9 mph N/A   Partly Cloudy
1:30 PM 82.4 °F 82.5 °F 59.0 °F 45% 30.12 in 6.2 mi SE 20.7 mph - N/A   Partly Cloudy
2:00 PM 80.6 °F 81.8 °F 62.6 °F 54% 30.12 in 6.2 mi SE 25.3 mph - N/A   Partly Cloudy
2:34 PM 82.4 °F 83.4 °F 62.6 °F 51% 30.09 in 6.2 mi SE 20.7 mph 32.2 mph N/A   Scattered Clouds
3:00 PM 80 °F - 62 °F 44% 30.11 in 19 mi SE 21.9 mph - -   Partly Cloudy
3:00 PM 78.8 °F - 62.6 °F 57% 30.09 in 6.2 mi SE 21.9 mph - N/A   Scattered Clouds
3:30 PM 80.6 °F 81.5 °F 60.8 °F 51% 30.09 in 6.2 mi SE 21.9 mph - N/A   Scattered Clouds
4:00 PM 78.8 °F - 62.6 °F 57% 30.09 in 6.2 mi SE 23.0 mph - N/A   Scattered Clouds
4:30 PM 78.8 °F - 62.6 °F 57% 30.09 in 6.2 mi SE 20.7 mph - N/A   Scattered Clouds
5:00 PM 75.2 °F - 66.2 °F 73% 30.09 in 6.2 mi SE 19.6 mph - N/A Rain Light Rain Showers
5:30 PM 71.6 °F - 66.2 °F 83% 30.09 in 6.2 mi SE 17.3 mph - N/A Rain Light Rain Showers
6:00 PM 70 °F - 65 °F 79% 30.12 in 4 mi ESE 20.7 mph - -   Overcast
6:00 PM 69.8 °F - 64.4 °F 83% 30.09 in 5.6 mi ESE 20.7 mph - N/A Rain Rain Showers
6:30 PM 71.6 °F - 66.2 °F 83% 30.12 in 6.2 mi East 13.8 mph - N/A   Mostly Cloudy
7:00 PM 72 °F - 65 °F 72% 30.13 in - South 5.8 mph - -  
7:00 PM 71.6 °F - 64.4 °F 78% 30.12 in 6.2 mi South 5.8 mph - N/A   Mostly Cloudy
7:30 PM 71.6 °F - 64.4 °F 78% 30.12 in 6.2 mi SSE 16.1 mph - N/A   Mostly Cloudy
8:00 PM 71.6 °F - 64.4 °F 78% 30.12 in 6.2 mi SSE 16.1 mph - N/A   Scattered Clouds
8:30 PM 71.6 °F - 62.6 °F 73% 30.12 in 6.2 mi SE 18.4 mph - N/A   Mostly Cloudy
9:00 PM 73 °F - 64 °F 65% 30.14 in - SSE 21.9 mph - -  
9:00 PM 73.4 °F - 64.4 °F 73% 30.12 in 6.2 mi SSE 21.9 mph - N/A   Scattered Clouds
9:30 PM 73.4 °F - 64.4 °F 73% 30.12 in 6.2 mi SE 20.7 mph - N/A   Scattered Clouds
10:00 PM 73 °F - 64 °F 67% 30.14 in - SE 18.4 mph - -  
10:00 PM 73.4 °F - 64.4 °F 73% 30.12 in 6.2 mi SE 18.4 mph - N/A   Mostly Cloudy
10:30 PM 73.4 °F - 64.4 °F 73% 30.12 in 6.2 mi SE 18.4 mph - N/A   Mostly Cloudy
11:00 PM 73.4 °F - 62.6 °F 69% 30.12 in 6.2 mi SE 21.9 mph - N/A Rain Light Rain Showers
11:34 PM 73.4 °F - 60.8 °F 65% 30.12 in 6.2 mi SE 21.9 mph 33.4 mph N/A   Mostly Cloudy